RH
90 84 77 71 71 78 83 82 80 80 81 82 82 78 78 82 84 86 85 83 79 79 82 83 85 86 87 85 80 77 69 61 63 63 59 59 51 30 20 32 48 55 57 59 60 64 72 76 76 75 70 67 67 70 72 70 67 67 65 65 66 72
86 78 70 68 71 76 83 84 80 83 85 83 82 82 83 84 83 82 80 77 74 74 78 81 82 84 84 83 80 78 73 65 63 63 61 60 56 39 20 26 44 53 57 58 60 66 71 74 75 76 73 69 70 71 71 70 68 65 63 63 64 72
78 73 70 71 77 81 83 83 81 84 87 83 81 83 85 87 85 81 79 75 74 73 75 78 78 80 82 82 82 81 74 68 65 64 63 61 59 50 27 20 34 49 56 57 60 66 70 72 73 75 75 73 72 72 71 69 69 67 64 64 66 68
75 74 75 78 84 87 83 82 81 79 84 82 79 83 85 87 85 83 82 74 72 73 74 74 69 74 79 76 78 86 82 72 65 63 64 63 60 56 39 23 25 41 53 57 59 65 69 69 71 73 75 75 73 71 71 70 69 66 65 66 65 64
75 76 78 80 87 92 86 82 80 77 81 78 76 82 85 89 86 83 80 73 72 77 82 79 71 73 77 69 64 72 79 74 66 63 62 63 62 58 49 34 27 35 47 56 60 61 65 67 69 71 74 75 74 72 71 72 70 65 66 68 66 64
76 78 81 80 85 90 87 83 80 79 79 74 74 79 83 88 87 80 76 74 77 81 86 88 84 82 81 75 66 59 60 63 64 64 61 61 62 60 54 43 38 43 49 57 60 57 61 66 66 69 73 75 75 74 73 73 70 66 66 68 67 67
80 82 83 81 83 85 84 82 82 84 79 72 72 75 80 84 83 79 76 81 84 84 86 91 93 91 86 80 79 74 65 62 60 60 61 61 61 62 59 48 44 54 59 59 59 58 60 63 63 67 74 79 79 76 75 75 70 67 66 66 70 72
87 84 81 80 83 84 85 83 85 88 81 71 66 67 72 74 75 77 81 87 88 86 88 92 95 96 94 86 84 85 82 77 68 59 59 60 60 61 62 54 45 51 59 59 60 60 58 60 65 69 74 78 80 79 78 76 72 68 66 66 71 75
89 86 78 77 81 84 84 83 84 84 76 68 65 65 66 66 69 74 82 87 86 85 85 89 91 92 96 94 89 86 86 84 76 63 57 59 60 60 62 61 53 47 49 54 58 58 57 62 67 71 74 75 76 78 78 76 73 68 66 67 70 73
84 86 79 76 80 80 77 76 77 76 71 69 71 71 69 67 68 71 74 78 79 80 80 83 85 86 90 93 93 90 87 84 76 63 53 54 60 61 59 61 61 55 50 49 52 54 57 63 68 73 79 77 74 76 75 74 73 68 66 67 68 70
80 84 82 79 83 81 79 77 74 73 72 74 79 81 79 78 77 77 77 77 78 79 80 83 85 86 88 92 94 93 91 89 82 70 53 47 53 60 61 59 60 61 61 60 58 61 65 68 71 76 80 76 71 74 75 72 71 68 67 68 66 65
82 84 85 83 84 84 85 86 83 81 80 80 84 87 88 87 86 85 86 86 86 86 86 87 88 89 90 91 93 94 95 92 90 83 67 52 50 56 60 60 59 59 65 71 72 74 75 75 75 75 78 75 69 73 76 73 71 68 67 69 66 62
87 86 87 85 85 85 87 89 89 89 88 87 88 89 89 89 88 88 89 88 88 88 89 89 89 90 91 91 91 94 95 94 94 92 84 71 63 64 64 64 62 60 64 70 75 78 79 79 78 77 77 74 69 71 75 74 72 70 68 69 68 65
92 90 90 89 87 87 88 89 90 90 90 90 89 89 90 89 89 88 88 87 86 87 87 88 88 90 93 93 91 90 89 88 91 93 91 84 78 76 73 69 66 66 65 66 70 76 79 81 81 79 75 73 68 68 73 74 73 73 72 70 69 68
96 94 93 92 90 89 90 90 89 89 90 89 89 89 90 89 88 88 87 87 88 87 87 86 85 88 92 93 91 88 84 82 85 90 91 90 88 84 80 77 76 77 75 70 68 70 75 79 80 79 75 72 68 66 71 74 74 75 76 74 71 69
97 96 95 92 92 92 91 90 91 93 92 88 87 87 88 88 89 90 91 90 89 87 87 86 85 87 89 90 90 87 85 84 85 87 88 89 91 87 84 82 81 84 84 78 72 68 70 75 77 76 77 74 70 69 71 74 74 73 76 78 74 70
97 97 95 93 93 92 90 92 94 93 89 86 86 85 87 88 88 90 91 89 87 86 86 86 86 88 90 90 91 91 90 90 89 88 90 91 90 89 87 85 83 85 85 83 81 73 68 70 73 73 77 78 75 73 73 75 75 75 76 79 79 74
99 98 97 95 94 92 92 94 94 92 89 87 86 85 85 85 86 87 86 85 86 86 85 85 86 87 88 89 91 93 93 94 94 93 93 93 90 88 88 88 86 85 84 86 90 85 74 71 72 72 77 82 80 77 78 77 77 80 80 81 83 78
100 99 98 97 95 94 94 94 94 93 90 87 86 84 84 84 85 87 86 86 87 86 86 86 86 86 86 85 86 88 90 93 96 96 95 94 90 86 86 88 87 87 87 88 92 92 86 81 77 77 82 86 83 80 83 81 80 84 81 79 81 78
100 99 99 98 96 96 95 92 91 90 87 85 86 86 85 86 87 88 86 86 88 88 89 89 89 90 89 89 88 88 89 91 94 96 98 97 93 89 87 88 89 91 93 94 93 92 90 87 82 85 91 90 86 83 83 82 83 86 82 77 79 78
100 100 100 97 96 95 92 90 90 89 87 87 88 87 87 87 87 88 87 88 89 90 91 91 91 91 92 93 94 94 94 93 93 95 98 99 96 94 92 91 92 94 96 99 97 94 91 89 89 93 97 96 94 91 88 86 86 87 83 79 79 78
100 100 99 97 94 92 89 89 89 89 91 92 91 90 89 88 88 88 87 88 88 89 90 89 89 91 93 94 95 96 97 96 95 95 98 100 99 99 97 96 96 96 98 100 98 97 95 93 94 95 97 99 100 99 96 96 94 90 84 81 81 80
99 98 97 97 95 93 91 91 91 92 95 95 94 93 92 90 89 87 87 86 87 88 89 89 90 92 94 95 95 97 98 99 99 99 99 100 99 100 100 99 99 98 99 99 98 99 98 95 93 93 97 99 98 99 100 100 99 95 88 84 83 84
100 99 98 98 97 97 96 95 96 95 95 94 92 92 90 89 89 89 88 88 89 90 91 92 93 95 96 96 98 99 99 100 100 100 100 100 100 100 100 100 100 99 99 100 99 98 98 98 94 92 95 98 95 97 98 97 98 96 92 90 87 86
97 97 97 96 95 95 94 95 96 94 91 90 89 88 87 88 90 91 90 90 90 90 91 92 95 98 98 98 100 100 100 100 100 100 100 100 100 100 100 100 100 100 100 100 99 97 98 99 97 93 92 93 95 97 95 93 95 95 93 94 90 87
92 92 93 92 92 92 92 93 92 90 89 89 89 91 92 92 92 93 93 91 90 89 89 91 94 97 98 99 100 100 100 100 100 100 100 100 100 100 100 100 100 100 100 100 100 99 99 98 98 97 93 89 90 92 91 92 95 96 95 97 94 91
88 88 89 90 90 90 90 90 89 89 89 89 91 93 93 90 88 89 89 88 88 89 90 91 93 95 96 98 99 99 100 100 100 100 100 100 100 100 100 100 100 100 100 100 100 100 100 98 98 100 97 92 88 88 90 92 94 96 97 100 99 97
84 84 86 86 87 87 87 87 86 86 86 86 89 91 90 88 85 84 83 83 84 85 87 88 92 95 96 97 97 97 99 100 100 100 100 100 100 100 100 100 100 100 100 100 99 100 100 100 100 99 98 97 94 93 94 93 94 95 94 97 99 99
80 80 81 82 83 84 84 84 84 84 84 85 86 88 89 88 86 84 81 81 83 83 83 85 88 91 93 93 93 94 95 95 96 98 99 100 100 100 100 100 100 100 100 98 98 100 100 99 99 99 99 99 99 99 98 97 97 97 94 94 97 98
78 78 78 79 80 80 81 82 82 83 84 84 86 86 86 86 88 87 83 84 87 89 90 91 90 91 92 93 92 93 93 92 93 95 98 100 100 100 100 100 100 100 100 98 98 100 98 96 97 99 99 99 100 100 99 99 99 100 97 95 96 96
76 76 76 77 76 77 79 80 81 82 84 86 87 86 85 88 90 90 90 92 94 94 96 97 96 95 96 97 96 97 97 96 95 94 96 99 100 100 100 100 100 99 100 100 99 100 99 97 98 100 100 99 100 98 96 97 96 98 99 96 95 95
76 77 77 77 76 77 79 81 82 82 84 86 87 86 87 89 92 93 95 95 95 96 96 98 99 98 99 100 99 99 99 98 97 96 97 99 99 100 100 100 100 99 99 100 99 100 100 99 99 100 100 100 100 98 97 95 93 94 97 94 94 95
77 78 78 77 76 78 80 82 84 83 83 84 84 86 87 88 90 91 92 92 93 95 95 95 96 97 99 100 99 100 99 99 99 99 99 100 99 100 100 100 100 99 100 100 99 98 99 100 100 100 100 100 100 100 99 97 96 96 96 95 95 96
74 76 76 77 77 78 80 83 83 82 82 82 84 86 87 88 88 89 90 91 92 93 93 92 92 94 97 98 99 100 99 98 98 99 100 100 100 100 100 100 100 100 100 100 100 99 100 100 100 100 100 100 100 100 100 98 99 99 98 99 98 97
74 76 77 78 80 80 81 82 82 83 84 84 85 85 86 87 88 88 89 90 92 92 91 90 90 92 94 95 97 97 98 98 98 99 100 100 100 100 100 100 100 100 100 100 100 100 100 100 100 100 100 100 100 99 100 99 100 100 99 100 98 95
76 79 81 83 85 86 85 84 84 85 86 86 87 86 86 88 88 88 89 90 92 92 91 90 89 90 91 92 95 95 97 99 99 100 100 99 100 100 100 100 100 100 100 100 100 99 100 100 100 100 100 100 100 99 100 100 99 101 100 100 100 97
78 82 84 86 87 87 85 83 82 82 83 85 87 88 88 89 90 89 89 90 91 91 91 90 89 88 89 91 93 96 99 99 98 99 99 98 98 98 99 99 99 100 100 100 100 99 100 100 99 100 100 100 100 100 100 100 99 100 100 100 100 100
Wind_Speed
16 14 14 13 13 13 13 11 11 11 11 11 10 10 11 11 11 12 11 11 10 9 8 8 7 6 6 5 5 6 7 6 6 5 6 6 6 8 12 16 18 17 15 14 12 11 10 8 6 6 7 8 7 5 4 3 4 4 5 5 5 6
16 15 14 13 13 13 13 12 10 10 10 10 10 10 10 10 10 10 11 11 10 8 8 8 7 7 7 6 6 6 7 7 6 5 5 6 6 7 10 14 17 17 16 14 12 11 10 8 6 5 6 7 7 6 4 4 3 4 4 4 4 5
16 14 14 13 13 13 13 13 11 11 11 10 11 10 10 10 10 10 10 10 10 9 8 7 7 6 6 7 6 6 7 7 6 5 5 5 5 6 8 12 16 18 17 14 12 11 9 8 6 5 5 7 8 7 5 4 3 3 4 4 4 4
15 14 14 13 13 13 12 12 12 12 11 11 11 10 10 9 9 9 9 9 9 8 7 6 6 6 5 7 7 7 7 8 8 6 5 5 5 6 7 10 14 18 18 15 13 12 8 7 7 5 5 6 7 7 6 5 4 3 4 4 4 4
14 13 14 14 14 13 12 12 12 12 11 10 11 11 9 9 8 7 7 7 8 7 6 5 6 6 5 6 7 8 8 9 9 8 7 6 5 6 6 8 12 17 18 16 14 12 8 7 6 4 3 3 6 8 8 7 6 4 4 4 4 4
14 13 13 14 14 12 11 11 12 12 11 10 11 11 10 9 8 7 8 8 8 7 6 6 5 5 5 5 6 7 8 9 10 10 9 8 7 6 6 7 10 15 18 17 15 13 10 7 4 1 1 1 4 8 10 9 8 6 4 4 5 5
14 13 13 13 13 12 12 12 12 11 11 11 11 11 10 10 9 8 9 8 8 8 8 8 7 7 7 7 6 6 7 8 9 11 11 10 9 8 7 7 10 14 17 17 16 14 11 7 4 4 5 4 5 9 12 12 10 7 5 5 5 5
14 13 13 14 14 14 13 12 12 11 11 11 10 10 10 10 9 9 9 9 9 9 10 10 10 9 10 10 9 8 7 8 9 10 12 13 11 10 9 9 10 14 16 16 15 13 11 8 7 7 9 10 10 10 13 15 12 9 6 5 6 7
14 13 14 15 15 14 14 13 13 12 11 10 10 9 9 9 10 10 11 11 10 10 11 12 12 11 12 12 12 10 9 9 9 10 13 15 14 12 11 11 11 13 15 15 15 13 11 10 10 10 12 14 15 14 14 17 15 11 8 6 7 8
14 13 14 15 15 14 13 12 12 11 10 9 9 8 8 9 10 11 12 12 12 12 12 13 13 13 13 14 14 13 12 10 10 11 13 15 16 15 13 12 12 13 14 15 15 14 13 12 12 13 13 14 15 15 15 18 17 13 10 8 7 8
14 13 14 15 14 12 11 11 9 9 9 8 7 7 8 9 10 11 12 13 14 14 15 15 15 15 14 15 15 16 15 13 11 11 12 15 16 17 15 14 14 13 13 14 14 14 13 13 14 15 15 15 14 14 17 19 19 15 11 9 8 8
14 13 13 13 13 11 10 10 8 8 8 8 8 9 10 11 11 12 13 14 15 16 16 17 16 16 15 15 16 17 17 17 15 12 13 14 15 17 17 16 16 15 14 14 14 14 14 14 15 16 15 16 14 13 19 21 20 18 13 10 9 9
15 14 13 12 11 11 10 10 9 9 9 9 10 11 11 11 12 12 13 14 14 15 15 16 16 16 15 15 16 17 17 18 17 15 14 15 16 16 17 18 17 17 16 16 16 15 16 15 16 15 14 15 13 13 19 22 22 19 15 12 10 10
17 15 13 12 11 11 10 10 10 10 10 10 11 12 11 11 10 11 11 12 12 12 13 14 15 15 14 14 15 16 17 18 18 16 16 16 18 18 18 18 18 18 18 18 18 17 17 17 16 15 14 13 12 13 19 24 23 21 17 13 11 11
18 16 14 12 11 10 10 9 9 9 9 10 11 11 10 9 8 8 8 9 9 10 10 12 12 13 13 14 15 15 16 16 17 17 17 18 18 20 20 20 20 19 19 20 20 20 19 18 16 15 14 13 13 14 18 24 25 22 19 16 14 13
18 16 15 13 12 10 9 8 8 8 9 9 9 9 7 7 8 8 7 7 7 8 8 9 9 10 12 13 15 15 16 16 16 17 18 18 18 19 20 22 22 21 21 21 21 22 22 20 17 16 14 13 14 14 16 24 26 22 20 19 18 15
18 16 15 13 12 11 10 8 7 7 8 8 7 7 7 8 9 8 8 7 7 8 8 8 8 9 11 13 14 16 16 16 16 16 18 18 18 18 19 21 23 23 24 24 22 21 22 22 19 17 15 13 14 15 16 23 25 23 21 22 23 19
16 15 14 13 12 11 10 8 6 6 6 6 7 7 7 8 8 8 8 8 8 8 9 9 10 10 12 13 14 16 16 15 16 17 19 20 19 19 21 22 23 23 24 25 23 22 23 22 19 18 16 13 13 14 16 21 23 23 22 22 24 22
15 14 13 12 11 10 8 7 6 5 5 6 7 8 8 8 8 8 8 8 8 8 9 10 11 12 13 14 15 15 16 16 17 18 20 20 20 21 22 23 24 23 22 24 23 23 23 21 18 17 16 14 13 14 16 19 21 22 22 21 23 23
13 12 11 10 9 8 6 6 5 6 6 7 8 9 9 9 9 9 9 9 9 9 10 10 11 12 13 14 15 15 16 17 18 20 21 21 22 22 22 22 23 22 22 23 23 21 20 18 16 15 13 13 14 14 15 18 20 22 22 22 23 23
9 9 9 8 7 6 5 5 5 6 6 7 8 9 9 9 10 10 10 10 11 11 11 12 13 13 14 14 15 16 17 18 19 21 22 23 23 23 23 23 23 22 21 21 21 21 18 14 11 9 8 10 13 12 13 16 19 21 22 22 23 24
8 7 6 5 4 4 4 4 5 5 5 7 7 7 8 8 9 10 11 12 12 13 13 14 14 15 15 15 15 16 17 18 18 20 22 24 24 23 23 24 23 22 21 20 20 19 18 15 11 9 7 5 7 9 11 14 17 20 22 22 23 25
6 6 5 5 4 4 3 4 4 5 6 7 7 8 8 9 10 11 12 12 13 14 14 15 15 15 15 15 16 16 16 17 18 19 21 23 23 23 23 23 23 23 22 21 20 18 18 19 15 10 6 3 3 3 6 11 15 20 22 22 24 26
5 4 4 5 4 3 2 3 3 4 6 6 6 6 6 6 8 9 9 10 10 11 12 13 13 15 15 15 16 16 16 17 18 19 20 22 23 23 23 22 23 23 22 19 18 18 19 21 19 12 5 1 1 2 3 6 12 19 21 21 24 27
6 4 3 2 1 2 1 1 1 2 2 2 5 7 7 8 8 8 8 9 9 9 9 10 11 13 15 15 16 17 18 18 19 19 20 22 23 24 24 23 24 24 23 20 19 19 19 20 23 21 14 5 1 1 3 3 7 12 19 22 24 27
9 9 7 5 4 3 4 4 4 5 6 7 10 11 11 12 11 9 9 9 9 9 9 10 11 12 13 14 15 16 17 17 18 19 20 21 23 23 23 24 26 24 23 23 22 20 18 18 21 23 24 19 10 5 3 4 4 3 11 20 23 25
12 12 11 9 8 6 7 8 9 10 10 10 11 11 11 11 10 10 9 9 9 9 9 10 11 11 11 12 12 13 13 14 16 17 18 20 21 22 23 25 26 24 22 23 24 22 18 16 18 21 25 27 22 15 8 5 4 1 3 10 17 23
13 13 11 10 9 9 9 9 9 10 10 10 11 10 9 9 10 10 10 11 10 10 10 10 10 10 10 10 11 12 12 12 14 15 17 19 20 20 21 22 24 24 23 22 22 22 20 17 18 20 23 26 26 24 18 11 8 5 2 3 8 15
13 12 11 10 9 10 9 9 8 9 10 9 9 9 9 10 10 11 11 12 13 12 12 11 10 10 10 11 11 12 13 14 14 15 16 18 19 20 20 20 21 22 23 23 22 21 21 20 19 19 20 22 23 22 21 19 15 10 5 5 4 5
12 11 10 9 8 9 8 8 8 9 9 8 8 8 9 11 12 12 13 14 14 14 14 13 12 11 11 11 12 12 13 14 16 17 17 17 19 20 20 19 19 20 22 24 23 21 20 21 21 22 21 20 19 17 16 14 15 14 9 7 6 5
12 10 9 8 7 7 6 7 7 8 8 8 8 9 10 12 13 13 13 14 14 15 15 14 14 13 12 12 12 12 13 14 16 17 18 18 18 19 20 19 18 19 21 22 22 19 20 22 22 23 23 22 21 20 17 14 16 18 13 8 7 4
12 10 9 8 7 7 7 7 7 7 8 9 9 10 11 12 13 13 13 12 13 13 14 15 15 15 15 14 14 13 14 14 15 16 17 18 19 19 19 18 18 18 19 21 22 20 19 22 22 23 23 24 24 25 25 24 23 22 20 17 13 5
12 10 10 9 9 8 8 8 8 8 9 9 9 10 10 11 11 12 12 12 13 13 14 15 16 17 17 16 15 15 15 15 15 16 17 17 19 19 19 18 18 18 18 19 21 21 20 21 22 23 23 24 26 26 27 29 27 25 24 22 16 8
12 11 10 11 11 11 10 10 11 11 10 9 9 9 9 9 10 10 11 11 13 13 14 15 16 16 17 17 15 15 15 16 16 16 16 17 18 19 18 19 20 20 20 20 20 21 22 22 22 23 24 25 26 27 28 29 28 27 25 23 19 13
13 12 12 13 14 14 13 13 13 13 12 11 10 9 8 7 7 8 10 10 11 12 13 14 14 15 15 15 16 16 15 16 16 16 16 17 19 19 18 19 20 21 21 21 21 22 23 24 24 25 25 26 27 28 28 28 28 29 28 26 25 22
12 11 10 11 12 13 14 14 15 14 13 12 12 11 10 8 7 7 8 9 10 11 11 12 13 13 13 14 15 15 15 15 15 15 15 16 18 18 18 18 20 21 22 22 22 23 23 24 25 26 27 28 28 28 28 28 29 29 30 30 29 27
10 10 10 10 11 13 14 15 15 14 14 13 12 12 12 11 10 8 8 8 9 10 10 11 12 12 13 13 14 14 15 15 15 16 15 15 16 16 16 17 18 20 21 22 23 23 23 24 25 26 27 28 28 28 28 28 28 28 30 32 31 29
Wind_Direction
166 167 162 155 158 158 156 164 164 161 162 167 168 166 166 170 175 181 188 192 197 204 206 210 216 225 233 235 224 214 211 194 178 163 149 141 135 139 155 167 172 170 166 160 148 136 128 120 120 142 166 177 180 176 170 149 125 121 126 133 141 144
167 166 162 161 163 161 162 167 165 160 164 172 169 161 158 160 171 183 191 197 203 208 208 211 218 225 232 238 238 231 227 213 193 179 165 156 149 147 157 168 174 175 173 170 156 144 139 130 124 139 164 183 189 188 186 168 148 134 132 132 135 144
167 165 165 164 162 164 168 171 169 168 172 176 174 169 163 164 174 182 188 197 201 203 207 215 219 221 228 237 243 241 240 235 217 200 184 174 164 157 162 169 176 178 177 176 163 152 147 134 126 134 158 185 195 196 197 186 177 159 145 141 143 155
167 167 166 164 164 167 172 175 177 177 181 181 181 178 171 174 182 188 192 196 196 199 210 223 221 212 218 231 239 238 236 239 232 222 207 195 183 171 170 173 179 181 181 179 170 161 155 138 127 123 141 180 201 206 209 204 200 186 166 162 162 168
171 171 169 168 168 171 173 180 183 184 188 186 186 188 184 185 191 200 202 202 201 202 209 220 225 217 215 220 231 240 240 238 235 232 223 212 204 191 182 179 181 182 181 178 172 170 166 150 137 120 118 171 212 218 219 220 216 204 182 177 177 176
172 174 174 173 171 172 176 184 188 188 193 190 193 197 197 200 204 210 211 215 218 221 225 230 241 243 243 228 220 237 245 246 242 241 236 226 219 209 196 189 184 180 178 176 174 175 176 170 166 151 42 202 231 232 230 228 221 210 192 184 180 178
170 172 172 174 173 174 179 185 189 191 196 195 197 201 206 211 215 218 222 230 238 249 258 259 261 265 269 256 239 238 242 249 246 245 245 239 231 224 212 200 190 182 178 177 177 178 181 192 221 268 298 293 267 248 238 232 224 214 199 191 184 180
169 170 169 172 174 175 179 182 187 193 197 198 200 203 208 216 221 227 235 244 253 262 271 275 273 274 273 263 255 249 247 253 250 245 245 243 238 231 224 213 199 193 190 190 190 191 199 221 253 277 291 293 285 264 243 232 223 214 206 199 190 190
173 171 171 172 173 175 177 183 189 195 198 201 205 206 211 221 229 236 246 253 259 265 271 278 283 284 280 270 262 255 251 255 259 251 242 240 239 234 230 224 216 208 206 207 208 213 226 243 263 280 288 291 285 270 246 230 221 212 208 201 196 198
178 177 176 174 175 176 178 185 192 197 202 209 214 217 220 228 237 245 255 263 268 272 275 280 285 286 282 276 269 260 255 255 264 264 250 240 237 237 233 230 230 224 220 222 225 230 241 253 266 278 284 290 285 267 244 227 219 213 208 201 197 199
184 185 184 180 182 183 184 190 196 201 211 223 230 237 242 245 249 255 263 270 275 276 277 280 282 280 277 275 270 263 260 257 260 268 263 249 239 239 238 236 238 237 235 236 240 244 250 258 268 277 284 294 290 260 237 223 216 212 207 200 197 198
193 195 192 188 191 194 196 199 204 212 226 241 248 256 263 264 264 267 272 274 275 275 274 276 276 274 273 273 272 267 263 260 259 262 269 263 249 241 239 241 243 244 247 248 251 254 259 262 268 277 284 292 289 250 228 220 213 209 205 200 196 197
200 203 199 198 201 204 209 212 218 228 242 255 260 267 272 272 270 270 273 272 271 271 271 274 275 273 271 270 271 269 266 266 267 264 265 268 263 254 248 246 247 250 252 253 256 259 266 269 270 276 281 286 279 241 223 217 213 209 205 201 199 200
201 206 204 207 214 214 217 223 231 240 250 259 264 270 274 276 275 275 272 267 267 271 275 279 279 276 272 269 268 269 271 275 276 271 267 267 265 263 261 255 252 254 256 256 257 260 264 269 273 275 276 273 259 234 222 215 211 210 208 204 202 203
199 206 208 213 223 224 225 231 240 248 256 265 269 270 274 280 285 286 280 273 272 277 286 289 285 279 275 273 273 273 277 282 284 281 275 272 267 262 262 262 260 258 259 257 257 259 261 266 274 276 272 262 246 235 226 216 211 210 208 208 207 205
201 206 211 218 227 229 233 240 245 252 260 270 273 270 274 283 286 286 287 288 283 284 296 301 292 283 278 277 276 276 279 282 282 281 280 279 274 265 259 261 263 264 264 263 260 260 261 265 275 279 272 256 245 244 233 219 214 213 210 211 212 208
204 208 215 222 228 233 240 247 251 256 262 269 274 273 275 280 282 284 287 288 286 290 296 300 298 287 282 279 278 278 280 280 277 278 281 281 280 273 265 262 262 262 263 265 265 263 262 263 270 275 271 258 250 249 238 222 217 216 216 216 216 214
205 208 215 221 228 236 242 248 255 262 265 268 275 278 277 278 282 285 288 290 292 297 301 305 306 299 294 290 286 284 284 285 280 278 279 279 278 278 275 272 269 266 263 263 265 265 265 266 269 272 268 258 251 245 233 224 220 219 220 221 222 221
204 206 209 216 224 231 239 248 259 271 272 276 288 291 288 285 291 295 297 302 301 303 308 309 308 304 301 298 294 291 290 289 284 281 281 279 277 275 275 276 276 273 268 264 263 261 263 266 269 272 266 253 243 233 225 223 222 221 222 226 228 225
198 199 202 210 217 224 237 252 268 283 290 302 311 309 303 298 301 304 306 306 303 304 307 307 308 304 301 300 298 296 294 291 287 285 282 279 279 277 274 274 275 275 273 269 264 259 257 258 262 265 262 251 240 231 226 226 225 222 224 227 227 226
183 189 197 205 214 225 244 260 278 297 312 324 326 317 315 314 311 311 311 308 306 307 307 307 307 305 303 303 301 299 296 293 290 286 283 282 282 280 277 274 273 273 270 265 262 259 253 245 243 243 244 243 237 234 232 229 227 227 229 228 223 224
176 188 198 206 224 246 264 282 299 310 321 327 327 322 319 318 313 310 309 308 309 309 308 308 307 304 302 303 304 303 300 298 294 289 286 284 282 279 276 274 274 271 263 257 257 257 246 231 216 205 204 224 234 237 237 230 228 229 230 229 224 223
188 200 208 212 228 251 259 273 290 301 312 316 323 327 320 317 315 313 312 313 312 309 307 305 303 299 297 299 302 301 302 303 301 295 289 285 282 278 274 272 270 265 258 254 255 253 243 230 218 200 181 196 223 223 237 229 226 227 225 228 228 224
174 189 202 208 218 233 240 249 277 313 322 321 340 347 336 337 342 338 334 330 324 320 315 311 305 297 294 299 302 302 304 305 303 300 294 288 285 282 278 271 267 264 259 255 252 252 246 231 223 212 183 172 179 172 236 219 218 225 223 225 228 226
111 111 133 164 192 196 179 191 320 355 358 19 32 26 19 19 16 8 359 347 339 332 327 324 319 308 301 302 303 304 306 306 303 300 297 291 287 286 283 275 268 266 261 255 249 248 248 238 229 225 217 210 139 181 249 197 202 227 223 221 224 225
93 89 86 84 85 99 93 80 70 67 71 65 53 44 40 33 26 18 6 353 345 338 329 327 327 322 312 304 301 302 305 308 306 302 299 294 288 286 285 280 272 265 259 258 253 245 246 244 238 230 223 224 225 228 238 174 174 226 220 221 224 224
90 84 79 80 80 82 86 83 82 81 76 71 65 58 52 44 36 29 15 2 354 348 343 342 339 332 323 314 307 306 308 311 310 307 304 296 290 289 288 285 281 274 267 261 251 243 244 239 232 230 226 227 231 236 239 205 193 212 200 221 226 224
85 80 74 72 72 76 84 85 82 79 76 72 68 62 54 44 35 29 22 13 2 353 349 349 345 336 329 326 322 317 314 313 312 313 311 304 300 299 294 288 284 282 278 268 254 247 245 234 222 224 225 227 232 238 243 238 234 242 208 205 222 224
80 77 72 70 70 72 75 77 71 68 67 64 59 56 46 33 25 19 16 12 2 354 350 347 345 339 331 324 321 321 320 317 315 314 311 308 307 306 302 292 283 282 283 278 270 259 252 243 233 231 228 226 230 237 243 244 245 247 232 215 215 212
73 70 70 68 66 62 58 59 58 53 51 47 40 34 23 16 12 6 5 6 3 358 356 354 350 348 343 330 321 320 322 319 317 314 310 310 310 309 308 300 287 282 282 276 268 260 253 251 245 239 234 229 226 228 233 238 239 235 231 229 231 219
67 60 58 55 53 50 44 45 49 49 45 41 33 21 13 14 12 8 7 8 4 359 0 360 356 355 355 349 340 332 328 321 315 313 312 310 309 309 309 306 298 291 287 283 278 265 250 250 250 244 240 236 231 229 226 226 227 221 219 225 227 224
68 59 54 52 54 56 53 51 51 52 49 43 33 24 22 24 22 20 19 14 6 359 357 359 1 0 357 355 352 346 340 331 324 321 319 317 314 312 310 308 304 300 295 291 289 278 256 250 250 246 244 242 239 238 233 232 232 223 219 221 221 221
67 59 50 45 48 52 54 51 46 42 38 30 24 23 27 28 24 22 21 17 14 8 3 2 5 4 1 359 355 351 348 343 339 334 329 326 322 317 315 311 306 301 295 289 287 282 271 262 255 251 251 248 243 241 238 238 237 231 225 222 221 227
65 58 54 53 53 55 55 51 44 40 36 30 25 25 25 21 14 12 13 16 16 11 8 5 5 5 3 1 358 353 350 348 346 343 339 335 329 324 320 315 310 304 299 292 288 285 280 274 270 265 262 254 246 244 244 243 239 233 228 222 220 222
78 74 74 70 65 63 63 60 55 53 52 50 44 38 30 15 1 358 2 7 10 8 6 2 1 2 0 360 0 357 353 351 349 346 345 344 338 331 324 319 314 310 306 301 295 288 284 281 278 274 270 262 254 248 246 245 240 234 229 225 224 221
86 79 73 68 63 64 69 68 64 63 63 61 57 49 41 32 23 13 4 0 2 2 359 355 354 355 354 359 2 1 359 357 353 349 347 347 346 340 332 325 320 314 310 307 302 294 289 286 282 278 275 269 260 252 250 247 241 237 233 231 230 223
82 66 63 68 71 73 76 74 68 66 65 63 61 54 46 40 34 29 20 11 4 356 349 349 351 349 349 354 360 3 2 359 358 358 354 350 347 343 337 330 326 321 315 311 307 301 298 294 289 283 278 273 265 257 255 251 244 241 236 232 229 222